KLM279 KGNV-KMIA

Flight info

Callsign KLM279
Flight time 0h 41m
Altitude 35000
Route VARZE FEBRO/N0327F170 T343 CUSEK FROGZ FROGZ5
Aircraft B738/M-SDE2E3FGHIRWXY/LB1

Departure

Time 2026-05-07 05:59
Airport Gainesville Regional Airport (KGNV)

Arrival

Time 2026-05-07 06:40
Airport Miami International Airport (KMIA)
Time Latitude Longitude Altitude Speed Heading
2026-05-07 05:54 29.68740 -82.27694 149 ft 0 kts 248°
2026-05-07 05:58 29.68738 -82.27750 151 ft 18 kts 295°
2026-05-07 05:58 29.68848 -82.27800 153 ft 18 kts
2026-05-07 05:58 29.68904 -82.27712 152 ft 14 kts 52°
2026-05-07 05:59 29.68966 -82.27570 147 ft 54 kts 89°
2026-05-07 05:59 29.68814 -82.26721 184 ft 153 kts 102°
2026-05-07 05:59 29.68632 -82.25442 1331 ft 152 kts 99°
2026-05-07 05:59 29.68514 -82.24148 2285 ft 188 kts 108°
2026-05-07 06:00 29.67773 -82.22830 3144 ft 202 kts 147°
2026-05-07 06:00 29.66463 -82.22280 4127 ft 216 kts 179°
2026-05-07 06:00 29.64826 -82.22141 4858 ft 248 kts 176°
2026-05-07 06:00 29.63091 -82.21891 6187 ft 255 kts 175°
2026-05-07 06:01 29.61303 -82.21619 7416 ft 262 kts 175°
2026-05-07 06:01 29.59482 -82.21344 8708 ft 266 kts 176°
2026-05-07 06:01 29.57630 -82.21069 9949 ft 271 kts 176°
2026-05-07 06:01 29.55722 -82.20790 10896 ft 285 kts 176°
2026-05-07 06:02 29.53699 -82.20500 11701 ft 300 kts 176°
2026-05-07 06:02 29.51594 -82.20199 12688 ft 308 kts 176°
2026-05-07 06:02 29.49415 -82.19890 13428 ft 328 kts 176°
2026-05-07 06:02 29.47032 -82.19558 13653 ft 360 kts 176°
2026-05-07 06:03 29.44513 -82.19205 14200 ft 377 kts 176°
2026-05-07 06:03 29.41889 -82.18832 15047 ft 382 kts 176°
2026-05-07 06:03 29.39238 -82.18454 15984 ft 385 kts 177°
2026-05-07 06:03 29.36566 -82.18075 16839 ft 390 kts 177°
2026-05-07 06:04 29.33855 -82.17692 17635 ft 396 kts 177°
2026-05-07 06:04 29.31102 -82.17304 18410 ft 401 kts 178°
2026-05-07 06:04 29.28317 -82.16914 19059 ft 406 kts 178°
2026-05-07 06:04 29.25498 -82.16519 19699 ft 411 kts 178°
2026-05-07 06:05 29.22642 -82.16119 20322 ft 416 kts 179°
2026-05-07 06:05 29.19745 -82.15715 20991 ft 422 kts 179°
2026-05-07 06:05 29.16814 -82.15305 21694 ft 426 kts 179°
2026-05-07 06:05 29.13854 -82.14892 22366 ft 431 kts 179°
2026-05-07 06:06 29.10849 -82.14451 22997 ft 438 kts 178°
2026-05-07 06:06 29.07866 -82.13842 23583 ft 445 kts 175°
2026-05-07 06:06 29.04810 -82.13099 24080 ft 451 kts 174°
2026-05-07 06:06 29.01736 -82.12306 24591 ft 455 kts 174°
2026-05-07 06:07 28.98641 -82.11500 25098 ft 458 kts 174°
2026-05-07 06:07 28.95513 -82.10699 25595 ft 462 kts 174°
2026-05-07 06:07 28.92357 -82.09905 26094 ft 465 kts 174°
2026-05-07 06:07 28.89182 -82.09119 26588 ft 468 kts 175°
2026-05-07 06:08 28.85980 -82.08336 27032 ft 472 kts 175°
2026-05-07 06:08 28.82751 -82.07552 27454 ft 476 kts 175°
2026-05-07 06:08 28.79496 -82.06764 27871 ft 479 kts 175°
2026-05-07 06:08 28.76229 -82.05973 28276 ft 482 kts 175°
2026-05-07 06:09 28.72931 -82.05174 28677 ft 485 kts 175°
2026-05-07 06:09 28.69615 -82.04372 29041 ft 489 kts 175°
2026-05-07 06:09 28.66321 -82.03575 29389 ft 492 kts 175°
2026-05-07 06:09 28.62966 -82.02763 29742 ft 495 kts 175°
2026-05-07 06:10 28.59582 -82.01945 30080 ft 497 kts 175°
2026-05-07 06:10 28.56195 -82.01125 30473 ft 497 kts 174°
2026-05-07 06:10 28.52821 -82.00307 30943 ft 494 kts 174°
2026-05-07 06:10 28.49453 -81.99491 31403 ft 493 kts 174°
2026-05-07 06:11 28.46099 -81.98681 31792 ft 492 kts 174°
2026-05-07 06:11 28.42741 -81.97872 32155 ft 493 kts 174°
2026-05-07 06:11 28.39392 -81.97066 32561 ft 492 kts 174°
2026-05-07 06:11 28.36087 -81.96271 33014 ft 490 kts 174°
2026-05-07 06:12 28.32755 -81.95469 33458 ft 489 kts 174°
2026-05-07 06:12 28.29427 -81.94669 33860 ft 488 kts 174°
2026-05-07 06:12 28.26103 -81.93871 34219 ft 488 kts 174°
2026-05-07 06:12 28.22784 -81.93075 34583 ft 487 kts 174°
2026-05-07 06:13 28.19472 -81.92279 34943 ft 485 kts 174°
2026-05-07 06:13 28.16162 -81.91487 35081 ft 489 kts 174°
2026-05-07 06:13 28.12825 -81.90675 35077 ft 492 kts 172°
2026-05-07 06:14 28.06317 -81.88202 35082 ft 492 kts 165°
2026-05-07 06:14 27.99934 -81.85448 35085 ft 490 kts 164°
2026-05-07 06:15 27.93598 -81.82754 35091 ft 489 kts 165°
2026-05-07 06:15 27.87196 -81.80093 35086 ft 489 kts 165°
2026-05-07 06:16 27.80794 -81.77458 35087 ft 490 kts 165°
2026-05-07 06:16 27.74383 -81.74823 35085 ft 490 kts 165°
2026-05-07 06:17 27.67973 -81.72189 35081 ft 491 kts 165°
2026-05-07 06:17 27.61599 -81.69571 35074 ft 491 kts 165°
2026-05-07 06:18 27.55176 -81.66936 35078 ft 491 kts 165°
2026-05-07 06:18 27.48753 -81.64304 35082 ft 491 kts 165°
2026-05-07 06:19 27.42325 -81.61674 35082 ft 491 kts 165°
2026-05-07 06:19 27.35901 -81.59048 35082 ft 491 kts 164°
2026-05-07 06:20 27.29480 -81.56427 35081 ft 491 kts 164°
2026-05-07 06:20 27.23052 -81.53806 35077 ft 491 kts 164°
2026-05-07 06:21 27.16668 -81.51206 35078 ft 490 kts 164°
2026-05-07 06:21 27.10254 -81.48598 35066 ft 490 kts 164°
2026-05-07 06:22 27.03829 -81.45988 35064 ft 490 kts 164°
2026-05-07 06:22 26.97359 -81.43365 34073 ft 496 kts 164°
2026-05-07 06:22 26.94107 -81.42045 33247 ft 496 kts 164°
2026-05-07 06:23 26.90857 -81.40727 32412 ft 497 kts 164°
2026-05-07 06:23 26.87605 -81.39410 31563 ft 498 kts 164°
2026-05-07 06:23 26.84333 -81.38100 30611 ft 501 kts 165°
2026-05-07 06:23 26.81058 -81.36853 29500 ft 505 kts 166°
2026-05-07 06:24 26.77719 -81.35618 28564 ft 504 kts 166°
2026-05-07 06:24 26.74416 -81.34401 27852 ft 497 kts 165°
2026-05-07 06:24 26.71166 -81.33102 26951 ft 496 kts 163°
2026-05-07 06:24 26.67957 -81.31724 26192 ft 492 kts 162°
2026-05-07 06:25 26.64787 -81.30310 25424 ft 488 kts 161°
2026-05-07 06:25 26.62708 -81.29338 24791 ft 489 kts 160°
2026-05-07 06:25 26.59597 -81.27839 24013 ft 485 kts 159°
2026-05-07 06:25 26.56518 -81.26335 23217 ft 480 kts 159°
2026-05-07 06:26 26.53479 -81.24850 22447 ft 473 kts 159°
2026-05-07 06:26 26.50478 -81.23391 21734 ft 466 kts 159°
2026-05-07 06:26 26.47530 -81.21967 21033 ft 458 kts 159°
2026-05-07 06:26 26.44620 -81.20569 20365 ft 452 kts 159°
2026-05-07 06:27 26.41747 -81.19194 19681 ft 446 kts 158°
2026-05-07 06:27 26.38912 -81.17839 18998 ft 442 kts 158°
2026-05-07 06:27 26.36100 -81.16497 18325 ft 437 kts 158°
2026-05-07 06:27 26.33321 -81.15170 17580 ft 433 kts 158°
2026-05-07 06:28 26.30564 -81.13854 16894 ft 427 kts 157°
2026-05-07 06:28 26.27853 -81.12561 16241 ft 421 kts 157°
2026-05-07 06:28 26.25206 -81.11299 15613 ft 416 kts 156°
2026-05-07 06:28 26.22562 -81.10039 14979 ft 411 kts 156°
2026-05-07 06:29 26.19942 -81.08790 14336 ft 408 kts 156°
2026-05-07 06:29 26.17326 -81.07544 13685 ft 408 kts 155°
2026-05-07 06:29 26.14730 -81.06275 12984 ft 407 kts 152°
2026-05-07 06:29 26.12304 -81.04681 12299 ft 404 kts 143°
2026-05-07 06:30 26.10170 -81.02679 11750 ft 398 kts 136°
2026-05-07 06:30 26.08176 -81.00610 11540 ft 385 kts 135°
2026-05-07 06:30 26.06261 -80.98602 11418 ft 371 kts 135°
2026-05-07 06:30 26.04551 -80.96539 11368 ft 355 kts 126°
2026-05-07 06:31 26.03257 -80.94296 11365 ft 334 kts 118°
2026-05-07 06:31 26.02156 -80.92119 11354 ft 312 kts 118°
2026-05-07 06:31 26.01135 -80.90069 11352 ft 295 kts 117°
2026-05-07 06:31 26.00169 -80.88132 11350 ft 279 kts 117°
2026-05-07 06:32 25.99246 -80.86288 11356 ft 266 kts 117°
2026-05-07 06:32 25.98366 -80.84537 11354 ft 254 kts 117°
2026-05-07 06:32 25.97521 -80.82862 11350 ft 242 kts 117°
2026-05-07 06:32 25.96695 -80.81224 10820 ft 254 kts 118°
2026-05-07 06:33 25.95762 -80.79374 9429 ft 296 kts 118°
2026-05-07 06:33 25.94766 -80.77412 9058 ft 284 kts 118°
2026-05-07 06:33 25.93812 -80.75529 8725 ft 274 kts 118°
2026-05-07 06:33 25.92897 -80.73724 8410 ft 264 kts 118°
2026-05-07 06:34 25.91976 -80.71911 7617 ft 275 kts 118°
2026-05-07 06:34 25.91028 -80.70050 7007 ft 277 kts 118°
2026-05-07 06:34 25.90082 -80.68195 6493 ft 275 kts 118°
2026-05-07 06:34 25.89144 -80.66356 5970 ft 273 kts 118°
2026-05-07 06:35 25.88211 -80.64529 5426 ft 271 kts 118°
2026-05-07 06:35 25.87284 -80.62711 5058 ft 270 kts 118°
2026-05-07 06:35 25.86362 -80.60902 4835 ft 268 kts 118°
2026-05-07 06:35 25.85450 -80.59113 4394 ft 264 kts 118°
2026-05-07 06:36 25.84543 -80.57334 3796 ft 265 kts 119°
2026-05-07 06:36 25.83644 -80.55573 3271 ft 265 kts 120°
2026-05-07 06:36 25.82749 -80.53819 2965 ft 254 kts 120°
2026-05-07 06:36 25.81898 -80.52155 2893 ft 243 kts 120°
2026-05-07 06:37 25.81071 -80.50539 2876 ft 241 kts 120°
2026-05-07 06:37 25.80223 -80.48884 2928 ft 258 kts 120°
2026-05-07 06:37 25.79390 -80.47085 2839 ft 263 kts 108°
2026-05-07 06:37 25.79328 -80.45099 2634 ft 257 kts 81°
2026-05-07 06:38 25.79571 -80.43147 2311 ft 251 kts 88°
2026-05-07 06:38 25.79628 -80.41231 2035 ft 245 kts 90°
2026-05-07 06:38 25.79677 -80.39341 1645 ft 249 kts 89°
2026-05-07 06:38 25.79772 -80.37423 1283 ft 247 kts 88°
2026-05-07 06:39 25.79851 -80.35566 969 ft 232 kts 89°
2026-05-07 06:39 25.79918 -80.33868 700 ft 210 kts 88°
2026-05-07 06:39 25.79981 -80.32330 430 ft 190 kts 88°
2026-05-07 06:39 25.80039 -80.30917 193 ft 177 kts 88°
2026-05-07 06:40 25.80092 -80.29605 18 ft 161 kts 88°
2026-05-07 06:40 25.80130 -80.28665 19 ft 72 kts 86°
2026-05-07 06:40 25.80148 -80.28238 14 ft 47 kts 87°
2026-05-07 06:40 25.80135 -80.28023 14 ft 23 kts 109°
2026-05-07 06:41 25.80025 -80.27906 12 ft 22 kts 161°
2026-05-07 06:41 25.79873 -80.27894 14 ft 22 kts 178°
2026-05-07 06:41 25.79781 -80.27891 16 ft 0 kts 178°